Hollywood, FL

8:21 AM EST on November 18, 2017 (GMT -0500)
North Perry

Weather History for KHWO - December, 2012

Change the Weather History Date:

Wednesday, December 26, 2012

  Actual Average (KFLL) Record (KFLL)
Temperature  
Mean Temperature 73 °F -  
Max Temperature 82 °F 75 °F 87 °F (1921)
Min Temperature 64 °F 56 °F 31 °F (1983)
Cooling Degree Days 8    
Growing Degree Days 23 (Base 50)    
Moisture  
Dew Point 66 °F    
Average Humidity 78    
Maximum Humidity 93    
Minimum Humidity 60    
Precipitation  
Precipitation 0.06 in - - ()
Sea Level Pressure  
Sea Level Pressure 29.95 in    
Wind  
Wind Speed 10 mph (SW)    
Max Wind Speed 21 mph    
Max Gust Speed 34 mph    
Visibility 10 miles    
Events Rain    
Averages and records for this station are not official NWS values.
T = Trace of Precipitation, MM = Missing Value Source: NWS Daily Summary

Daily Weather History Graph

Daily Weather History Graph

Search for Another Location

Airport or City:

Trip Planner

Search our weather history database for the weather conditions in past years. The results will help you decide how hot, cold, wet, or windy it might be!

Date:

Astronomy

Dec. 26, 2012 Rise Set
Actual Time 7:06 AM EST 5:37 PM EST
Civil Twilight 6:40 AM EST 6:02 PM EST
Nautical Twilight 6:12 AM EST 6:31 PM EST
Astronomical Twilight 5:43 AM EST 6:59 PM EST
Moon 4:27 PM EST (12/26) 5:31 AM EST (12/26)
Length of Visible Light 11h 21m
Length of Day
10h 31m
Waxing Gibbous, 97% of the Moon is Illuminated
Dec 26
Waxing Gibbous
Dec 28
Full
Jan 4
Last Quarter
Jan 11
New
Jan 18
First Quarter

Hourly Weather History & Observations

Time (EST) Temp. Heat Index Dew Point Humidity Pressure Visibility Wind Dir Wind Speed Gust Speed Precip Events Conditions
12:53 AM 71.1 °F - 63.0 °F 75% 29.94 in 10.0 mi SSE 6.9 mph - N/A   Clear
1:53 AM 72.0 °F - 64.9 °F 78% 29.93 in 10.0 mi SE 9.2 mph - N/A   Partly Cloudy
2:53 AM 73.0 °F - 66.9 °F 81% 29.94 in 10.0 mi SSE 5.8 mph - N/A   Mostly Cloudy
3:53 AM 73.0 °F - 66.9 °F 81% 29.94 in 10.0 mi South 6.9 mph - N/A   Scattered Clouds
4:53 AM 71.1 °F - 66.0 °F 84% 29.94 in 10.0 mi South 3.5 mph - N/A   Partly Cloudy
6:53 AM 70.0 °F - 66.9 °F 90% 29.96 in 10.0 mi SE 4.6 mph - N/A   Scattered Clouds
7:53 AM 70.0 °F - 68.0 °F 93% 29.96 in 10.0 mi South 3.5 mph - N/A   Clear
8:53 AM 75.9 °F - 69.1 °F 79% 29.97 in 10.0 mi South 9.2 mph - N/A   Mostly Cloudy
9:53 AM 79.0 °F - 69.1 °F 72% 29.97 in 10.0 mi South 12.7 mph - N/A   Partly Cloudy
10:53 AM 80.1 °F 82.3 °F 66.9 °F 64% 29.96 in 10.0 mi SSW 12.7 mph 21.9 mph N/A   Mostly Cloudy
11:53 AM 81.0 °F 83.0 °F 66.0 °F 60% 29.95 in 10.0 mi SW 13.8 mph 24.2 mph N/A   Mostly Cloudy
12:53 PM 81.0 °F 83.0 °F 66.0 °F 60% 29.91 in 10.0 mi SW 16.1 mph 34.5 mph N/A   Mostly Cloudy
1:53 PM 82.0 °F 84.5 °F 66.9 °F 60% 29.89 in 10.0 mi SW 18.4 mph 27.6 mph N/A   Scattered Clouds
2:53 PM 82.0 °F 84.5 °F 66.9 °F 60% 29.88 in 10.0 mi WSW 20.7 mph 31.1 mph N/A   Clear
3:53 PM 81.0 °F 83.3 °F 66.9 °F 62% 29.88 in 10.0 mi SW 13.8 mph 25.3 mph N/A   Scattered Clouds
4:53 PM 79.0 °F - 68.0 °F 69% 29.89 in 10.0 mi SW 16.1 mph - N/A   Mostly Cloudy
5:53 PM 77.0 °F - 69.1 °F 76% 29.90 in 10.0 mi SW 11.5 mph - N/A   Scattered Clouds
6:53 PM 75.9 °F - 69.1 °F 79% 29.92 in 10.0 mi SW 10.4 mph - N/A   Scattered Clouds
7:53 PM 75.0 °F - 70.0 °F 84% 29.94 in 10.0 mi SW 13.8 mph - N/A   Partly Cloudy
8:09 PM 69.8 °F - 64.4 °F 83% 29.96 in 10.0 mi WNW 16.1 mph 29.9 mph 0.00 in Rain Light Rain
8:22 PM 68.0 °F - 64.4 °F 88% 29.97 in 10.0 mi WNW 9.2 mph - 0.06 in Rain Light Rain
8:53 PM 68.0 °F - 66.0 °F 93% 29.98 in 10.0 mi WNW 9.2 mph - 0.06 in   Overcast
9:53 PM 66.9 °F - 64.9 °F 93% 29.99 in 10.0 mi WNW 10.4 mph - N/A   Scattered Clouds
10:51 PM 66.2 °F - 62.6 °F 88% 30.01 in 10.0 mi WNW 10.4 mph - N/A   Mostly Cloudy
10:53 PM 66.0 °F - 63.0 °F 90% 30.01 in 10.0 mi NW 9.2 mph - N/A   Mostly Cloudy
11:30 PM 64.4 °F - 60.8 °F 88% 30.01 in 10.0 mi WNW 12.7 mph - N/A   Scattered Clouds
11:53 PM 64.0 °F - 60.1 °F 87% 30.02 in 10.0 mi NW 10.4 mph - N/A   Clear